FENGYUN 1C DEB

Satellite information

Favourite Embed

Satellite Type and Status

DEBRISIN ORBIT

Key statistics

Satellite FENGYUN 1C DEB at a glance.

Uptime

9553

Days in orbit

Revolutions

≈ 14.2

Per day

Orbit

SSO

Sun Synchronous Orbit

Inclination

98.5

Latest

Satellite identification and parameters

Extended collection of information and parameters for FENGYUN 1C DEB.

Object identification

Identified? True

Debris? True

Object name: FENGYUN 1C DEB

International designator: 1999-025AAN

Object number (NORAD): 30327

Object ID (CCSDS): 30327

Country: PEOPLES REPUBLIC OF CHINA (PRC)

Current information (Y/N): Y

RCS size: SMALL

Orbital parameters

Period: 101.666 minutes

Inclination: 98.4511 deg

SMA: 7215.665 km

Apoapsis: 922.75 km

Periapsis: 752.31 km

RAAN: 87.5362 deg

Eccentricy: 0.0118104

Argument of periapsis: 250.8642 deg

Mean anomaly: 263.7212 deg

Mean motion: 14.16407565 rev/day

Mean motion (dot): 0.00002306 rev/day2

B* drag term: 0.0011037 1/REarth

Two-line elements (TLE)

Creation date: July 4, 2025, 6:39 p.m.

Reference frame: TEME

Reference center: EARTH

Epoch: July 4, 2025, 5:09 a.m. UTC

TLE line 0: 0 FENGYUN 1C DEB

TLE line 1: 1 30327U 99025AAN 25185.21488014 .00002306 00000-0 11037-2 0 9994

TLE line 2: 2 30327 98.4511 87.5362 0118104 250.8642 263.7212 14.16407565941554

Live tracking on map

Real-time ground track for satellite FENGYUN 1C DEB.

In-orbit conjunctions

A list of the most updated potential collisions computed for object FENGYUN 1C DEB.

Target Orbit TCA Probability of collision Miss distance Type
TIMATION 1 LEO 2025-05-25 05:56:40 0.0001187943 198.0 (m) PAYLOAD
COSMOS 372 LEO 2025-02-10 13:26:42 0.001836128 167.0 (m) PAYLOAD
SL-14 DEB LEO 2024-11-12 00:23:48 0.0001209547 73.0 (m) DEBRIS

Associated space launch

Chinese polar orbiting meteorological satellite

FENGYUN 1C DEB was lifted into orbit during the mission ‘Long March 4B | Feng Yun 1C’, on board a Long March 4B space rocket.

The launch took place on May 10, 1999, 1:33 a.m. from Launch Complex 7.

For more information about the launch, click the button.

Launch to space Long March 4B | Feng Yun 1C
Long March 4B | Feng Yun 1C

Agency: N/A

Status: Launch Successful

Launch date: May 10, 1999, 1:33 a.m. UTC

Rocket: Long March 4B

Launch pad: Launch Complex 7

Location: Taiyuan Satellite Launch Center, People's Republic of China

...

Latest news about this satellite

There are no fresh news available about this satellite. Check back as we update our databases every day.


Newsletter sign-up

Weekly statistics, charts and insights to help you stay on top of the space industry.